Location: Bonny Doon Airfield
(37.0704°N, 122.1252°W)
Time: 18:32:38
(UTC-07:00)

BREEZE M DEB (TANK) - Visible Passes

Search period start: 28 March 2017 00:00
Search period end: 07 April 2017 00:00
Orbit: 317 x 13710 km, 49.6° (Epoch: 27 March)

Date Brightness Start Highest point End Pass type
(mag) Time Alt. Az. Time Alt. Az. Time Alt. Az.
28 Mar 8.1 18:51:03 10° NW 19:09:58 88° SW 20:54:34 10° SSE visible
28 Mar 9.6 23:29:04 10° WNW 23:58:52 22° WSW 00:57:49 10° SW visible
29 Mar 8.9 20:38:30 10° WNW 21:05:51 58° SW 22:49:04 10° S visible
30 Mar 7.8 17:56:36 10° NW 18:12:13 82° NE 19:48:12 10° SE visible
30 Mar 9.6 22:29:42 10° WNW 23:01:22 31° WSW 00:18:28 10° SSW visible
31 Mar 8.6 19:43:25 10° NW 20:06:47 68° SW 21:51:38 10° SSE visible
01 Apr 9.4 21:32:32 10° WNW 22:02:55 40° WSW 23:31:50 10° SSW visible
02 Apr 8.3 18:48:36 10° NW 19:08:09 79° SW 20:50:52 10° SSE visible
02 Apr 9.8 23:33:52 10° W 23:55:36 15° WSW 00:29:53 10° WSW visible
03 Apr 9.1 20:36:25 10° WNW 21:03:55 49° WSW 22:40:09 10° S visible
04 Apr 8.0 17:53:57 10° NW 18:10:09 90° SW 19:46:26 10° SE visible
04 Apr 9.7 22:30:01 10° WNW 22:58:31 23° WSW 23:59:12 10° SW visible
05 Apr 8.8 19:40:55 10° WNW 20:04:47 59° SW 21:44:32 10° S visible
06 Apr 9.6 21:31:13 10° WNW 22:00:24 32° WSW 23:17:25 10° SSW visible
